Flag for United Kingdom Weather past 2 weeks in Perth, Scotland, United Kingdom

Now
49 °F

Cool.


Feels Like: 42 °F
Forecast: N/A
Wind: 20 mph from Southwest

Location: Strathallan

Current Time: Mar 6, 2015 at 8:26:48 PM

Latest Report: Mar 6, 2015 at 7:00 PM


Visibility: 11 mi

Pressure: 29.86 "Hg

Humidity: 73%

Dew point: 41 °F

Location of PerthLocation

Historic Weather in Perth — Graph

°F

Perth temperature yesterday

Maximum temperature yesterday: 47 °F (at 5:00 PM)
Minimum temperature yesterday: 42 °F (at 1:00 AM)
Average temperature yesterday: 45 °F

Past Weeks' High & Low Weather Summary

 TemperatureHumidityPressure
High50 °F (Feb 26, 12:00 AM)100% (Feb 22, 1:00 AM)30.46 "Hg (Feb 22, 1:00 AM)
Low26 °F (Feb 22, 1:00 AM)52% (Feb 24, 10:00 AM)28.58 "Hg (Feb 23, 6:00 PM)
Average39 °F86%29.55 "Hg
* Reported Feb 19 7:00 PM — Mar 6 7:00 PM, Perth, Weather by CustomWeather, © 2015

Note: Actual official high and low records may vary slightly from our data, if they occured in-between our weather recording intervals... More about our weather records

Advertising

Perth weather history for previous 24 hours

 ConditionsComfort  
Time TempWeatherWind HumidityBarometerVisibility
7:00 PM
Fri, Mar 6
49 °FCool.20 mph73%29.86 "Hg11 mi
6:00 PM49 °FCool.22 mph74%29.89 "Hg14 mi
5:00 PM48 °FCool.17 mph75%29.91 "Hg12 mi
4:00 PM48 °FCool.16 mph74%29.96 "Hg25 mi
3:00 PM48 °FCool.20 mph72%29.99 "Hg22 mi
2:00 PM48 °FCool.22 mph70%30.02 "Hg19 mi
1:00 PM48 °FCool.20 mph71%30.05 "Hg22 mi
12:00 PM47 °FCool.18 mph72%30.07 "Hg18 mi
11:00 AM47 °FCool.18 mph74%30.12 "Hg16 mi
10:00 AM47 °FCool.15 mph76%30.14 "Hg22 mi
9:00 AM46 °FCool.12 mph78%30.16 "Hg19 mi
8:00 AM45 °FCool.8 mph79%30.18 "Hg22 mi
7:00 AM45 °FCool.10 mph83%30.21 "Hg16 mi
6:00 AM45 °FCool.16 mph87%30.22 "Hg16 mi
5:00 AM46 °FLight rain. Overcast.16 mph92%30.24 "Hg9 mi
4:00 AM46 °FRain. Overcast.14 mph96%30.24 "Hg2 mi
3:00 AM46 °FLight rain. Overcast.14 mph94%30.25 "Hg2 mi
2:00 AM46 °FCool.14 mph95%30.27 "Hg3 mi
1:00 AM46 °FDrizzle. Overcast.15 mph95%30.28 "Hg2 mi
12:00 AM47 °FCool.13 mph93%30.29 "Hg11 mi
11:00 PM
Thu, Mar 5
47 °FCool.17 mph92%30.29 "Hg19 mi
10:00 PM47 °FCool.18 mph93%30.28 "Hg31 mi
8:00 PM47 °FDrizzle. Overcast.15 mph94%30.29 "Hg3 mi
Weather by CustomWeather, © 2015

See weather overviewHow to use our weather pages